Weather History for Fort Dodge, IA

Change the Weather History Date:

Tuesday, February 7, 2012

  Actual Average Record
Temperature  
Mean Temperature 30 °F -  
Max Temperature 32 °F 26 °F 67 °F (1987)
Min Temperature 28 °F 6 °F -16 °F (1979)
Degree Days  
Heating Degree Days 35    
Moisture  
Dew Point 26 °F    
Average Humidity 82    
Maximum Humidity 93    
Minimum Humidity 69    
Precipitation  
Precipitation 0.00 in - - ()
Sea Level Pressure  
Sea Level Pressure 30.35 in    
Wind  
Wind Speed 11 mph (NNE)    
Max Wind Speed 15 mph    
Max Gust Speed 22 mph    
Visibility 10 miles    
Events      
Averages and records for this station are not official NWS values.
T = Trace of Precipitation, MM = Missing Value Source: NWS Daily Summary

Daily Weather History Graph

Daily Weather History Graph

Search for Another Location

Airport:

Trip Planner

Search our weather history database for the weather conditions in past years. The results will help you decide how hot, cold, wet, or windy it might be!

Date:

Astronomy

Feb. 07, 2012 Rise Set
Actual Time 7:24 AM CST 5:37 PM CST
Civil Twilight 6:55 AM CST 6:07 PM CST
Nautical Twilight 6:21 AM CST 6:40 PM CST
Astronomical Twilight 5:48 AM CST 7:13 PM CST
Moon 5:51 PM CST (2/7) 6:53 AM CST (2/7)
Length of Visible Light 11h 12m
Length of Day
10h 13m
Full, 100% of the Moon is Illuminated
Feb 7
Full
Feb 7
Full
Feb 14
Last Quarter
Feb 21
New
Feb 29
First Quarter

Hourly Weather History & Observations

Time (CST) Temp. Windchill Dew Point Humidity Pressure Visibility Wind Dir Wind Speed Gust Speed Precip Events Conditions
12:15 AM 32.0 °F 24.2 °F 28.4 °F 87% 30.19 in 10.0 mi North 9.2 mph - N/A   Clear
12:35 AM 32.0 °F 23.6 °F 28.4 °F 87% 30.19 in 10.0 mi North 10.4 mph - N/A   Clear
12:55 AM 32.0 °F 24.2 °F 28.4 °F 87% 30.19 in 10.0 mi North 9.2 mph - N/A   Scattered Clouds
1:15 AM 32.0 °F 24.2 °F 28.4 °F 87% 30.19 in 10.0 mi North 9.2 mph - N/A   Mostly Cloudy
1:35 AM 32.0 °F 24.8 °F 28.4 °F 87% 30.20 in 10.0 mi North 8.1 mph - N/A   Mostly Cloudy
1:55 AM 32.0 °F 24.8 °F 28.4 °F 87% 30.21 in 10.0 mi North 8.1 mph - N/A   Partly Cloudy
2:15 AM 32.0 °F 23.0 °F 26.6 °F 80% 30.22 in 10.0 mi North 11.5 mph - N/A   Clear
2:35 AM 32.0 °F 23.0 °F 26.6 °F 80% 30.22 in 10.0 mi North 11.5 mph - N/A   Clear
2:55 AM 30.2 °F 20.8 °F 26.6 °F 86% 30.22 in 10.0 mi NNE 11.5 mph 16.1 mph N/A   Clear
3:15 AM 30.2 °F 21.3 °F 26.6 °F 86% 30.23 in 10.0 mi North 10.4 mph 17.3 mph N/A   Clear
3:35 AM 30.2 °F 20.8 °F 26.6 °F 86% 30.24 in 10.0 mi North 11.5 mph 18.4 mph N/A   Mostly Cloudy
3:55 AM 30.2 °F 19.8 °F 26.6 °F 86% 30.25 in 10.0 mi NNE 13.8 mph 17.3 mph N/A   Overcast
4:15 AM 32.0 °F 23.0 °F 26.6 °F 80% 30.26 in 10.0 mi NNE 11.5 mph 18.4 mph N/A   Overcast
4:35 AM 32.0 °F 22.5 °F 28.4 °F 87% 30.26 in 10.0 mi NNE 12.7 mph 18.4 mph N/A   Overcast
4:55 AM 32.0 °F 23.6 °F 28.4 °F 87% 30.27 in 10.0 mi NNE 10.4 mph - N/A   Overcast
5:15 AM 32.0 °F 23.6 °F 28.4 °F 87% 30.28 in 10.0 mi NNE 10.4 mph - N/A   Overcast
5:35 AM 32.0 °F 23.0 °F 28.4 °F 87% 30.28 in 10.0 mi NNE 11.5 mph 16.1 mph N/A   Overcast
5:55 AM 32.0 °F 23.6 °F 26.6 °F 80% 30.29 in 10.0 mi NNE 10.4 mph - N/A   Overcast
6:15 AM 32.0 °F 24.2 °F 26.6 °F 80% 30.30 in 10.0 mi NNE 9.2 mph - N/A   Overcast
6:35 AM 32.0 °F 23.6 °F 26.6 °F 80% 30.32 in 10.0 mi NNE 10.4 mph - N/A   Overcast
6:55 AM 32.0 °F 23.6 °F 26.6 °F 80% 30.32 in 10.0 mi NNE 10.4 mph - N/A   Overcast
7:15 AM 32.0 °F 24.8 °F 26.6 °F 80% 30.33 in 10.0 mi NNE 8.1 mph - N/A   Overcast
7:35 AM 32.0 °F 25.6 °F 28.4 °F 87% 30.34 in 10.0 mi North 6.9 mph - N/A   Overcast
7:55 AM 30.2 °F 22.6 °F 28.4 °F 93% 30.34 in 10.0 mi NNE 8.1 mph - N/A   Overcast
8:15 AM 32.0 °F 24.8 °F 28.4 °F 87% 30.35 in 10.0 mi North 8.1 mph - N/A   Overcast
8:35 AM 32.0 °F 24.2 °F 28.4 °F 87% 30.36 in 10.0 mi NNE 9.2 mph - N/A   Overcast
8:55 AM 32.0 °F 22.5 °F 26.6 °F 80% 30.36 in 10.0 mi NNE 12.7 mph 16.1 mph N/A   Overcast
9:15 AM 32.0 °F 22.5 °F 26.6 °F 80% 30.37 in 10.0 mi NNE 12.7 mph 17.3 mph N/A   Overcast
9:35 AM 32.0 °F 21.6 °F 26.6 °F 80% 30.38 in 10.0 mi NNE 15.0 mph 19.6 mph N/A   Overcast
9:55 AM 32.0 °F 22.1 °F 26.6 °F 80% 30.39 in 10.0 mi NNE 13.8 mph 19.6 mph N/A   Overcast
10:15 AM 30.2 °F 19.8 °F 26.6 °F 86% 30.40 in 10.0 mi NNE 13.8 mph 18.4 mph N/A   Overcast
10:35 AM 30.2 °F 19.8 °F 26.6 °F 86% 30.40 in 10.0 mi NNE 13.8 mph 21.9 mph N/A   Overcast
10:55 AM 30.2 °F 21.3 °F 26.6 °F 86% 30.40 in 10.0 mi NNE 10.4 mph 18.4 mph N/A   Overcast
11:15 AM 30.2 °F 20.2 °F 26.6 °F 86% 30.40 in 10.0 mi NNE 12.7 mph - N/A   Overcast
11:35 AM 30.2 °F 20.2 °F 26.6 °F 86% 30.41 in 10.0 mi NNE 12.7 mph 19.6 mph N/A   Overcast
11:55 AM 30.2 °F 19.8 °F 24.8 °F 80% 30.40 in 10.0 mi NNE 13.8 mph - N/A   Overcast
12:15 PM 30.2 °F 19.8 °F 24.8 °F 80% 30.41 in 10.0 mi NNE 13.8 mph 19.6 mph N/A   Overcast
12:35 PM 30.2 °F 19.8 °F 24.8 °F 80% 30.41 in 10.0 mi NNE 13.8 mph 17.3 mph N/A   Overcast
12:55 PM 30.2 °F 19.8 °F 24.8 °F 80% 30.41 in 10.0 mi NNE 13.8 mph 19.6 mph N/A   Overcast
1:15 PM 30.2 °F 19.3 °F 24.8 °F 80% 30.41 in 10.0 mi NNE 15.0 mph 19.6 mph N/A   Overcast
1:35 PM 30.2 °F 19.8 °F 24.8 °F 80% 30.41 in 10.0 mi NNE 13.8 mph 19.6 mph N/A   Overcast
1:55 PM 30.2 °F 19.3 °F 24.8 °F 80% 30.41 in 10.0 mi NNE 15.0 mph 19.6 mph N/A   Overcast
2:15 PM 30.2 °F 20.8 °F 24.8 °F 80% 30.41 in 10.0 mi NNE 11.5 mph - N/A   Overcast
2:35 PM 28.4 °F 18.5 °F 24.8 °F 86% 30.42 in 10.0 mi NNE 11.5 mph 16.1 mph N/A   Overcast
2:55 PM 30.2 °F 20.8 °F 24.8 °F 80% 30.42 in 10.0 mi NNE 11.5 mph 16.1 mph N/A   Overcast
3:15 PM 30.2 °F 21.9 °F 23.0 °F 75% 30.43 in 10.0 mi NNE 9.2 mph - N/A   Overcast
3:35 PM 30.2 °F 20.8 °F 24.8 °F 80% 30.43 in 10.0 mi NNE 11.5 mph 16.1 mph N/A   Overcast
3:55 PM 30.2 °F 21.3 °F 23.0 °F 75% 30.43 in 10.0 mi NNE 10.4 mph - N/A   Overcast
4:15 PM 30.2 °F 21.3 °F 23.0 °F 75% 30.43 in 10.0 mi NNE 10.4 mph - N/A   Overcast
4:35 PM 28.4 °F 19.1 °F 21.2 °F 74% 30.43 in 10.0 mi NNE 10.4 mph - N/A   Overcast
4:55 PM 28.4 °F 19.1 °F 21.2 °F 74% 30.44 in 10.0 mi NNE 10.4 mph - N/A   Overcast
5:15 PM 28.4 °F 20.4 °F 21.2 °F 74% 30.44 in 10.0 mi NNE 8.1 mph - N/A   Overcast
5:35 PM 28.4 °F 19.7 °F 21.2 °F 74% 30.44 in 10.0 mi NNE 9.2 mph - N/A   Overcast
5:55 PM 28.4 °F 19.7 °F 19.4 °F 69% 30.45 in 10.0 mi NNE 9.2 mph - N/A   Overcast
6:15 PM 28.4 °F 19.7 °F 19.4 °F 69% 30.46 in 10.0 mi NNE 9.2 mph 16.1 mph N/A   Overcast
6:35 PM 28.4 °F 19.1 °F 19.4 °F 69% 30.46 in 10.0 mi NNE 10.4 mph - N/A   Overcast
6:55 PM 26.6 °F 17.5 °F 19.4 °F 74% 30.46 in 10.0 mi NNE 9.2 mph - N/A   Overcast
7:15 PM 26.6 °F 18.2 °F 19.4 °F 74% 30.46 in 10.0 mi North 8.1 mph - N/A   Overcast
7:35 PM 26.6 °F 21.2 °F 19.4 °F 74% 30.46 in 10.0 mi North 4.6 mph - N/A   Overcast
7:55 PM 26.6 °F 18.2 °F 19.4 °F 74% 30.46 in 10.0 mi NNE 8.1 mph - N/A   Overcast
8:15 PM 26.6 °F 20.0 °F 17.6 °F 69% 30.46 in 10.0 mi North 5.8 mph - N/A   Overcast
8:35 PM 26.6 °F 16.8 °F 17.6 °F 69% 30.46 in 10.0 mi NNE 10.4 mph - N/A   Overcast
8:55 PM 26.6 °F 20.0 °F 17.6 °F 69% 30.47 in 10.0 mi North 5.8 mph - N/A   Overcast
9:15 PM 26.6 °F 18.2 °F 17.6 °F 69% 30.48 in 10.0 mi North 8.1 mph - N/A   Overcast
9:35 PM 26.6 °F 18.2 °F 17.6 °F 69% 30.48 in 10.0 mi North 8.1 mph - N/A   Overcast
9:55 PM 26.6 °F 18.2 °F 17.6 °F 69% 30.48 in 10.0 mi North 8.1 mph - N/A   Overcast
10:15 PM 26.6 °F 19.1 °F 17.6 °F 69% 30.48 in 10.0 mi North 6.9 mph - N/A   Overcast
10:35 PM 24.8 °F 16.9 °F 17.6 °F 74% 30.48 in 10.0 mi NNE 6.9 mph - N/A   Overcast
10:55 PM 24.8 °F 16.9 °F 15.8 °F 69% 30.48 in 10.0 mi NNW 6.9 mph - N/A   Overcast
11:15 PM 24.8 °F 17.9 °F 15.8 °F 69% 30.48 in 10.0 mi NNW 5.8 mph - N/A   Overcast
11:35 PM 24.8 °F 19.1 °F 15.8 °F 69% 30.48 in 10.0 mi North 4.6 mph - N/A   Overcast
11:55 PM 24.8 °F 16.9 °F 15.8 °F 69% 30.48 in 10.0 mi North 6.9 mph - N/A   Overcast